"Pseudo-MPEC" for X82349

Created 2024 Aug 20 0:22:06 UT using Find_Orb

Click here for an explanation of pseudo-MPECs

 
 Astrometry: 
     X82349   C2024 07 30.73195 22 01 57.67 -02 55 40.0 FixDup   21.0 RVNEOCPD29
     X82349 * C2024 07 30.73195 22 01 57.67 -02 55 40.0 Duplicate21.0 RVNEOCPD29
     X82349   C2024 07 30.75385 22 01 58.37 -02 55 49.1    ~85GM 21.1 RVNEOCPD29
     X82349   C2024 07 30.77479 22 01 59.01 -02 55 56.4    ~85GM 21.0 RVNEOCPD29

Station data:
(D29) Purple Mountain Observatory, XuYi Station  (N32.734363 E118.463900)
   China.  Observers H. B. Zhao, B. Li, G. Zhaori, R. Q. Hong, L. F. Hu.
   Measurers H. B. Zhao, B. Li. H. Lu, G. Zhaori. 1.04-m f/1.8 Schmidt + CCD.

Orbital elements:  X82349
   Perihelion 2024 Oct 20.58080 +/- 45.2 TT = 13:56:20 (JD 2460604.08080)
Epoch 2024 Jul 31.0 TT = JDT 2460522.5   Earth MOID: 0.0490   Ma: 0.0089
M 330.79744490 +/- 24               (J2000 ecliptic)             AutoNEOCP
n   0.35795868 +/- 0.311            Peri.  260.08623 +/- 70
a   1.96447925 +/- 1.14             Node   147.83484 +/- 37
e   0.5861053 +/- 0.251             Incl.    9.30358 +/- 4.5
P   2.75341                H 22.04  G  0.15   U 12.0  SR
q 0.81308740 +/- 0.461    Q 3.11587109 +/- 61.7
From 4 observations 2024 July 30 (61.7 min); mean residual 0".23
Residuals in arcseconds: 
240730 D29  .05-  .13+    240730 D29  .18+  .52-    
240730 D29  .05-  .13+    240730 D29  .09-  .27+    

Ephemerides (geocentric):
Date (UTC) HH   RA             Dec           delta  r     elong  mag " sig PA
---- --------  ------------   ------------  ------ ------ -----  --- --------
2024 08 20 00  22 22 19.426   -10 23 59.41  .15857 1.1695 173.5 18.8  70d  92
2024 08 20 01  22 22 24.268   -10 26 10.70  .15820 1.1692 173.6 18.8  70d  92
2024 08 20 02  22 22 29.132   -10 28 22.59  .15784 1.1688 173.6 18.8  70d  92
2024 08 20 03  22 22 34.017   -10 30 35.11  .15747 1.1684 173.6 18.8  70d  92
2024 08 20 04  22 22 38.925   -10 32 48.24  .15710 1.1681 173.7 18.8  70d  92
2024 08 20 05  22 22 43.856   -10 35 02.00  .15674 1.1677 173.7 18.8  70d  92
2024 08 20 06  22 22 48.809   -10 37 16.39  .15637 1.1673 173.7 18.8  70d  92
2024 08 20 07  22 22 53.785   -10 39 31.41  .15601 1.1670 173.8 18.8  70d  92
2024 08 20 08  22 22 58.784   -10 41 47.06  .15564 1.1666 173.8 18.8  70d  92
2024 08 20 09  22 23 03.806   -10 44 03.36  .15528 1.1663 173.8 18.8  70d  92
2024 08 20 10  22 23 08.852   -10 46 20.30  .15491 1.1659 173.9 18.8  70d  92
2024 08 20 11  22 23 13.920   -10 48 37.88  .15455 1.1655 173.9 18.8  70d  92
2024 08 20 12  22 23 19.013   -10 50 56.12  .15418 1.1652 173.9 18.7  70d  92
2024 08 20 13  22 23 24.129   -10 53 15.01  .15382 1.1648 174.0 18.7  70d  92
2024 08 20 14  22 23 29.269   -10 55 34.56  .15346 1.1644 174.0 18.7  70d  92
2024 08 20 15  22 23 34.433   -10 57 54.78  .15309 1.1641 174.0 18.7  70d  92
2024 08 20 16  22 23 39.622   -11 00 15.66  .15273 1.1637 174.0 18.7  70d  92
2024 08 20 17  22 23 44.835   -11 02 37.21  .15237 1.1633 174.1 18.7  70d  92
2024 08 20 18  22 23 50.072   -11 04 59.44  .15200 1.1630 174.1 18.7  70d  92
2024 08 20 19  22 23 55.335   -11 07 22.35  .15164 1.1626 174.1 18.7  70d  92
2024 08 20 20  22 24 00.623   -11 09 45.95  .15128 1.1623 174.1 18.7  70d  92
2024 08 20 21  22 24 05.936   -11 12 10.23  .15092 1.1619 174.2 18.7  70d  92
2024 08 20 22  22 24 11.274   -11 14 35.20  .15055 1.1615 174.2 18.7  71d  92
2024 08 20 23  22 24 16.638   -11 17 00.88  .15019 1.1612 174.2 18.7  71d  92
2024 08 21 00  22 24 22.027   -11 19 27.25  .14983 1.1608 174.2 18.7  71d  92
2024 08 21 01  22 24 27.443   -11 21 54.33  .14947 1.1604 174.3 18.7  71d  92
2024 08 21 02  22 24 32.885   -11 24 22.12  .14911 1.1601 174.3 18.7  71d  92
2024 08 21 03  22 24 38.353   -11 26 50.63  .14875 1.1597 174.3 18.6  71d  92
2024 08 21 04  22 24 43.848   -11 29 19.85  .14839 1.1593 174.3 18.6  71d  92
2024 08 21 05  22 24 49.369   -11 31 49.80  .14802 1.1590 174.4 18.6  71d  92
2024 08 21 06  22 24 54.918   -11 34 20.48  .14766 1.1586 174.4 18.6  71d  92
2024 08 21 07  22 25 00.493   -11 36 51.89  .14730 1.1583 174.4 18.6  71d  92
2024 08 21 08  22 25 06.096   -11 39 24.04  .14694 1.1579 174.4 18.6  71d  92
2024 08 21 09  22 25 11.727   -11 41 56.93  .14658 1.1575 174.4 18.6  71d  92
2024 08 21 10  22 25 17.385   -11 44 30.57  .14622 1.1572 174.4 18.6  71d  92
2024 08 21 11  22 25 23.072   -11 47 04.96  .14587 1.1568 174.5 18.6  71d  92
2024 08 21 12  22 25 28.786   -11 49 40.10  .14551 1.1564 174.5 18.6  71d  92
2024 08 21 13  22 25 34.529   -11 52 16.01  .14515 1.1561 174.5 18.6  71d  92
2024 08 21 14  22 25 40.301   -11 54 52.68  .14479 1.1557 174.5 18.6  71d  92
2024 08 21 15  22 25 46.102   -11 57 30.13  .14443 1.1554 174.5 18.6  71d  92
2024 08 21 16  22 25 51.932   -12 00 08.35  .14407 1.1550 174.5 18.6  71d  92
2024 08 21 17  22 25 57.791   -12 02 47.36  .14371 1.1546 174.6 18.6  71d  92
2024 08 21 18  22 26 03.679   -12 05 27.15  .14336 1.1543 174.6 18.5  71d  92
2024 08 21 19  22 26 09.598   -12 08 07.73  .14300 1.1539 174.6 18.5  71d  92
2024 08 21 20  22 26 15.546   -12 10 49.11  .14264 1.1535 174.6 18.5  71d  92
2024 08 21 21  22 26 21.525   -12 13 31.29  .14228 1.1532 174.6 18.5  71d  92
2024 08 21 22  22 26 27.534   -12 16 14.28  .14193 1.1528 174.6 18.5  71d  92
2024 08 21 23  22 26 33.574   -12 18 58.08  .14157 1.1525 174.6 18.5  71d  92